Вернуться в каталог

GALAXY 4R

АктивенСвязьGEO
NORAD 26298·PAYLOAD·🇺🇸 United States

Запущен Apr 19, 2000 с Guiana Space Centre

Loading…

TLE

СвежийSource: Space-Track

Эпоха: Sep 14, 2026, 13:46 UTC

1 26298U 00020A   26257.57423434 -.00000140  00000-0  00000-0 0  9999
2 26298  12.8590  23.3618 0007459 207.5242 324.5262  0.99843269 96519

Отслеживайте GALAXY 4R в реальном времени с AllMySat

Download on the App Store